Regional Weather Roundup
Issued by NWS

Home | Current Version | Previous Version | Text Only | Print | Product List | Glossary On
Versions: 1 2 3 4 5 6 7 8 9 10 11 12 13 14 15 16 17 18 19 20 21 22 23 24 25 26 27 28 29 30 31 32 33 34 35 36 37 38 39 40 41 42 43 44 45 46 47 48 49 50
000
ASUS43 KTOP 111108
RWRKS

WEATHER ROUNDUP FOR KANSAS
NATIONAL WEATHER SERVICE GOODLAND KS
500 AM CST MON DEC 11 2017

NOTE:  "FAIR" INDICATES FEW OR NO CLOUDS BELOW 12,000 FEET WITH NO
SIGNIFICANT WEATHER AND/OR OBSTRUCTIONS TO VISIBILITY.

KSZ001>006-013>018-027>032-041>047-111200-
NORTHWEST KANSAS

CITY           SKY/WX    TMP DP  RH WIND       PRES   REMARKS
GOODLAND       CLOUDY    33   2  26 W16       30.24S WCI  23
HAYS           CLEAR     40   8  26 NW12      30.14F WCI  33
HILL CITY      CLEAR     41   9  26 W10       30.15F
RUSSELL        CLEAR     38  12  34 W6        30.11F
$$

KSZ061>065-074>080-084>089-111200-
SOUTHWEST KANSAS

CITY           SKY/WX    TMP DP  RH WIND       PRES   REMARKS
DODGE CITY     CLOUDY    32   6  33 NW12      30.19S WCI  23
ELKHART        CLOUDY    39  11  30 W12       30.25S WCI  32
GARDEN CITY    CLOUDY    31   5  33 NW14      30.21S WCI  21
GREAT BEND     CLEAR     35   8  32 CALM      30.16S
LIBERAL        CLOUDY    27   9  46 NW9       30.24F
PRATT          CLEAR     31   7  36 NW12      30.16S WCI  22
$$

KSZ066>073-081>083-090>101-111200-
SOUTHEAST KANSAS

CITY           SKY/WX    TMP DP  RH WIND       PRES   REMARKS
CHANUTE        CLEAR     37  20  50 SW6       30.08F
COFFEYVILLE    CLEAR     31  22  69 S7        30.11F
HUTCHINSON     CLEAR     38  12  34 W13       30.12S WCI  30
MEDICINE LODGE   N/A     32  12  43 N7        30.15F
NEWTON         CLOUDY    34  12  40 W9        30.11S
PARSONS        CLEAR     25  22  88 CALM      30.10F
WICHITA INTL   CLEAR     38  14  37 W9        30.11F
WICHITA JABRA  CLEAR     41  13  31 W12       30.11F
WICHITA MCCONL CLEAR     40  13  32 W7        30.11F
WINFIELD       CLOUDY    34  18  52 CALM      30.14F
$$

KSZ007>012-019>026-033>040-048>060-102>105-111200-
NORTHEAST KANSAS

CITY           SKY/WX    TMP DP  RH WIND       PRES   REMARKS
CONCORDIA      CLOUDY    37  12  35 W14       30.05F WCI  28
EMPORIA        CLEAR     45  13  27 W14       30.04F
LAWRENCE       CLEAR     22  18  85 NW6       30.01F
MANHATTAN      CLEAR     35  17  47 SW9       30.05F
MARYSVILLE     CLOUDY    39  14  35 SW5       30.00F
OLATHE IND     CLEAR     35  20  54 SW7       30.01F
OLATHE EXE     CLEAR     38  20  48 W8        30.00F
SALINA         CLEAR     43  12  28 W10       30.08F
TOPEKA BILLARD CLEAR     26  22  84 SW3       30.02F
TOPEKA FORBES  CLEAR     40  18  41 W10       30.01F WCI  33
$$



USA.gov is the U.S. government's official web portal to all federal, state and local government web resources and services.